Location: Villingen
(48.0639°N, 8.4609°E)
Time: 04:54:02
(UTC+01:00)

ISS - Pass Details

Date: 11 February 2018
Orbit: 402 x 407 km, 51.6° (Epoch: 25 February)

Event Time Altitude Azimuth Distance (km) Brightness Sun altitude
Rises 19:24:01 0° 286° (WNW) 2,320 1.4 -17.5°
Reaches altitude 10° 19:26:30 10° 267° (W) 1,457 0.3 -17.9°
Maximum altitude 19:28:50 18° 221° (SW) 1,055 -1.2 -18.3°
Drops below altitude 10° 19:31:10 10° 175° (S) 1,452 -1.1 -18.7°
Enters shadow 19:31:22 - 173° (S) 1,510 -1.0 -18.7°
